EIN37W EIDW-LBBG

Flight info

Callsign EIN37W
Flight time N/A
Altitude 35000
Route LIFFY4E LIFFY UL975 WAL M16 DOLAS L603 LAMSO DCT EVELI DCT KUMER DCT OMELO DCT GOLOP DCT ODNEM DCT ERGOM DCT TEGRI DCT RASUB DCT BULEN L742 ESENA ESENA4D
Aircraft A320/M-SDE3FGHIRWY/LB1

Departure

Time 2026-05-04 10:28
Airport Dublin Airport (EIDW)

Arrival

Time N/A
Airport Burgas Airport (LBBG)
Time Latitude Longitude Altitude Speed Heading
2026-05-04 09:49 53.42265 -6.23895 218 ft 0 kts 27°
2026-05-04 10:16 53.42205 -6.23848 211 ft 3 kts 297°
2026-05-04 10:16 53.42200 -6.23833 211 ft 0 kts 297°
2026-05-04 10:20 53.42202 -6.23840 211 ft 3 kts 297°
2026-05-04 10:21 53.42221 -6.23902 216 ft 8 kts 297°
2026-05-04 10:21 53.42254 -6.24012 215 ft 13 kts 291°
2026-05-04 10:21 53.42219 -6.24160 211 ft 16 kts 224°
2026-05-04 10:21 53.42157 -6.24298 213 ft 16 kts 261°
2026-05-04 10:22 53.42181 -6.24725 211 ft 17 kts 275°
2026-05-04 10:22 53.42190 -6.24909 211 ft 19 kts 275°
2026-05-04 10:22 53.42205 -6.25189 210 ft 28 kts 275°
2026-05-04 10:23 53.42222 -6.25487 219 ft 27 kts 275°
2026-05-04 10:23 53.42240 -6.25815 216 ft 30 kts 275°
2026-05-04 10:25 53.42341 -6.27655 211 ft 20 kts 275°
2026-05-04 10:25 53.42354 -6.27886 211 ft 19 kts 275°
2026-05-04 10:25 53.42366 -6.28107 216 ft 19 kts 275°
2026-05-04 10:25 53.42380 -6.28353 216 ft 22 kts 275°
2026-05-04 10:26 53.42393 -6.28595 211 ft 22 kts 275°
2026-05-04 10:26 53.42407 -6.28857 211 ft 19 kts 275°
2026-05-04 10:26 53.42380 -6.29051 212 ft 17 kts 220°
2026-05-04 10:26 53.42276 -6.29065 209 ft 15 kts 165°
2026-05-04 10:27 53.42238 -6.28927 209 ft 13 kts 95°
2026-05-04 10:27 53.42229 -6.28755 211 ft 20 kts 95°
2026-05-04 10:27 53.42195 -6.28141 212 ft 88 kts 95°
2026-05-04 10:27 53.42120 -6.26770 215 ft 146 kts 95°
2026-05-04 10:28 53.42012 -6.24842 356 ft 178 kts 94°
2026-05-04 10:28 53.41871 -6.22734 897 ft 188 kts 93°
2026-05-04 10:28 53.41735 -6.20463 1511 ft 203 kts 92°
2026-05-04 10:28 53.41607 -6.18008 2001 ft 221 kts 91°
2026-05-04 10:29 53.41473 -6.15369 2501 ft 235 kts 91°
2026-05-04 10:29 53.41325 -6.12531 2999 ft 251 kts 92°
2026-05-04 10:29 53.41166 -6.09586 3713 ft 256 kts 92°
2026-05-04 10:29 53.41001 -6.06592 4523 ft 259 kts 92°
2026-05-04 10:30 53.40911 -6.03569 5320 ft 261 kts 86°
2026-05-04 10:30 53.41039 -6.00522 6068 ft 264 kts 82°
2026-05-04 10:30 53.41264 -5.97442 6782 ft 268 kts 81°
2026-05-04 10:30 53.41517 -5.94324 7493 ft 272 kts 81°
2026-05-04 10:31 53.41770 -5.91162 8183 ft 276 kts 81°
2026-05-04 10:31 53.42015 -5.87944 8873 ft 280 kts 82°
2026-05-04 10:32 53.44961 -5.67173 11754 ft 340 kts 72°
2026-05-04 10:33 53.45635 -5.63396 12390 ft 342 kts 72°
2026-05-04 10:33 53.46322 -5.59537 13040 ft 346 kts 72°
2026-05-04 10:33 53.47015 -5.55647 13684 ft 348 kts 72°
2026-05-04 10:33 53.47668 -5.51759 14265 ft 352 kts 77°
2026-05-04 10:34 53.47950 -5.47648 14690 ft 361 kts 88°
2026-05-04 10:34 53.47855 -5.43328 14811 ft 377 kts 91°
2026-05-04 10:34 53.47722 -5.38866 15098 ft 387 kts 92°
2026-05-04 10:34 53.47585 -5.34321 15574 ft 391 kts 91°
2026-05-04 10:35 53.47448 -5.29751 16123 ft 393 kts 91°
2026-05-04 10:35 53.47357 -5.26712 16480 ft 394 kts 91°
2026-05-04 10:35 53.47218 -5.22098 17000 ft 397 kts 91°
2026-05-04 10:35 53.47079 -5.17462 17551 ft 399 kts 91°
2026-05-04 10:36 53.46942 -5.12796 18039 ft 402 kts 92°
2026-05-04 10:36 53.46801 -5.08090 18485 ft 405 kts 92°
2026-05-04 10:36 53.46652 -5.03348 18931 ft 407 kts 91°
2026-05-04 10:36 53.46501 -4.98596 19365 ft 409 kts 92°
2026-05-04 10:37 53.46345 -4.93815 19770 ft 411 kts 92°
2026-05-04 10:37 53.46186 -4.89018 20198 ft 413 kts 92°
2026-05-04 10:37 53.46026 -4.84199 20599 ft 414 kts 92°
2026-05-04 10:37 53.45867 -4.79361 20990 ft 416 kts 91°
2026-05-04 10:39 53.44868 -4.49978 23191 ft 426 kts 91°
2026-05-04 10:39 53.44689 -4.45003 23527 ft 427 kts 91°
2026-05-04 10:39 53.44505 -4.40010 23826 ft 429 kts 91°
2026-05-04 10:40 53.44316 -4.35014 24108 ft 430 kts 91°
2026-05-04 10:40 53.44130 -4.30054 24379 ft 431 kts 91°
2026-05-04 10:40 53.43943 -4.24999 24654 ft 432 kts 91°
2026-05-04 10:40 53.43755 -4.19967 24918 ft 433 kts 91°
2026-05-04 10:41 53.43560 -4.14921 25181 ft 434 kts 91°
2026-05-04 10:41 53.43360 -4.09871 25451 ft 435 kts 91°
2026-05-04 10:41 53.43156 -4.04789 25702 ft 436 kts 91°
2026-05-04 10:41 53.42954 -3.99776 25938 ft 436 kts 91°
2026-05-04 10:42 53.42749 -3.94670 26166 ft 437 kts 91°
2026-05-04 10:42 53.42542 -3.89562 26381 ft 438 kts 91°
2026-05-04 10:42 53.42336 -3.84459 26594 ft 439 kts 91°
2026-05-04 10:42 53.42131 -3.79407 26796 ft 440 kts 91°
2026-05-04 10:43 53.41919 -3.74270 26992 ft 441 kts 91°
2026-05-04 10:44 53.40356 -3.38632 28872 ft 435 kts 91°
2026-05-04 10:45 53.40125 -3.33557 29194 ft 434 kts 91°
2026-05-04 10:45 53.39898 -3.28576 29503 ft 432 kts 91°
2026-05-04 10:45 53.39665 -3.23545 29798 ft 431 kts 91°
2026-05-04 10:45 53.39432 -3.18580 30081 ft 430 kts 91°
2026-05-04 10:46 53.39197 -3.13571 30323 ft 429 kts 91°
2026-05-04 10:46 53.38980 -3.08569 30561 ft 428 kts 90°
2026-05-04 10:46 53.38792 -3.03660 30759 ft 428 kts 90°
2026-05-04 10:46 53.38614 -2.98660 30956 ft 428 kts 90°
2026-05-04 10:47 53.38442 -2.93734 31156 ft 427 kts 90°
2026-05-04 10:47 53.38264 -2.88763 31364 ft 427 kts 90°
2026-05-04 10:47 53.38080 -2.83797 31579 ft 427 kts 91°
2026-05-04 10:47 53.37892 -2.78877 31784 ft 426 kts 91°
2026-05-04 10:49 53.36481 -2.44343 33142 ft 427 kts 92°
2026-05-04 10:49 53.36271 -2.39363 33334 ft 427 kts 92°
2026-05-04 10:50 53.36057 -2.34394 33533 ft 427 kts 92°
2026-05-04 10:51 53.33020 -1.99996 34643 ft 430 kts 98°
2026-05-04 10:52 53.32504 -1.95047 34761 ft 431 kts 98°
2026-05-04 10:52 53.31992 -1.90153 34879 ft 432 kts 98°
2026-05-04 10:52 53.31471 -1.85191 35027 ft 432 kts 98°
2026-05-04 10:54 53.27194 -1.45132 35079 ft 442 kts 99°
2026-05-04 10:56 53.22731 -1.04712 35057 ft 443 kts 100°
2026-05-04 10:57 53.21594 -0.94624 35042 ft 445 kts 101°
2026-05-04 10:57 53.20447 -0.84497 35036 ft 446 kts 101°
2026-05-04 10:58 53.19280 -0.74313 35036 ft 446 kts 101°
2026-05-04 10:58 53.18105 -0.64136 35037 ft 447 kts 101°
2026-05-04 10:59 53.16921 -0.53954 35039 ft 447 kts 101°
2026-05-04 10:59 53.15741 -0.43835 35042 ft 448 kts 101°